Simultaneous Nadir Overpasses (SNOs) Predictions

Prediction of SNOs between GOES-17 and TERRA Satellite Orbit:

Table of predicted SNOs for the next 14.0 days since TLE Epoch: 7/21/2023
Index Date Time (GOES-17) GOES-17 Lat,Lon TERRA Lat,Lon Distance(km) Time Diff (sec)
1 07/22/2023 05:18:58 0.00,-104.71 -0.77,-108.27 405.70 80
2 07/24/2023 04:59:53 0.00,-104.71 0.10,-104.31 45.12 80
3 07/26/2023 04:43:27 0.00,-104.70 0.93,-100.34 495.87 80
4 07/26/2023 17:03:37 -0.00,-104.72 0.12,-105.24 59.02 80
5 07/28/2023 16:49:51 -0.01,-104.72 -0.73,-101.27 391.49 80
6 07/29/2023 05:10:08 0.01,-104.70 -0.31,-106.20 171.56 80
7 07/31/2023 04:51:01 0.01,-104.68 0.51,-102.23 278.46 80
8 07/31/2023 17:11:12 -0.01,-104.70 0.48,-107.14 277.23 80
9 08/02/2023 16:57:24 -0.00,-104.69 -0.30,-103.15 173.30 80
10 08/03/2023 05:17:42 0.01,-104.67 -0.72,-108.09 389.04 80
